GW4499 Weather Reports


Display with metric or nautical units.
time (UTC)temp
F
wind
direction
speed
MPH
gust
MPH
rain 1hr
in
rain 24hr
in
rain mn
in
humidity
%
barometer
mb
20260902150040 73 0.0 1.0 0.00 0.01 0.00 46 1018.5
20260902145020 70 0.0 0.0 0.00 0.01 0.00 54 1018.0
20260902144020 67 0.0 1.0 0.00 0.01 0.00 58 1017.7
20260902143020 65 0.0 2.0 0.00 0.01 0.00 65 1017.6
20260902142040 63 0.0 0.0 0.00 0.01 0.00 68 1017.3
20260902141020 62 0.0 0.0 0.00 0.01 0.00 72 1017.4
20260902140020 61 0.0 1.0 0.00 0.01 0.00 74 1017.4
20260902135023 59 0.0 1.0 0.00 0.01 0.00 79 1017.4
20260902134020 58 0.0 2.0 0.00 0.01 0.00 80 1016.9
20260902133020 57 0.0 0.0 0.00 0.01 0.00 83 1016.8
20260902132019 56 0.0 0.0 0.00 0.01 0.00 82 1016.6
20260902131020 55 0.0 0.0 0.00 0.01 0.00 84 1016.3
20260902130040 55 0.0 0.0 0.00 0.01 0.00 84 1016.5
20260902125020 55 0.0 1.0 0.00 0.01 0.00 84 1016.5
20260902124020 54 0.0 1.0 0.00 0.01 0.00 83 1016.5
20260902123020 55 0.0 0.0 0.00 0.01 0.00 84 1016.7
20260902122020 55 0.0 1.0 0.00 0.01 0.00 84 1016.6
20260902121040 55 0.0 0.0 0.00 0.01 0.00 84 1016.5
20260902120019 56 0.0 2.0 0.00 0.01 0.00 84 1016.6
20260902115020 56 0.0 1.0 0.00 0.01 0.00 84 1016.5
20260902114020 56 0.0 0.0 0.00 0.01 0.00 83 1016.6
20260902113019 56 0.0 0.0 0.00 0.01 0.00 81 1016.7
20260902112019 56 0.0 0.0 0.00 0.01 0.00 82 1016.9
20260902111019 56 0.0 0.0 0.00 0.01 0.00 81 1016.7
20260902110040 57 0.0 1.0 0.00 0.01 0.00 81 1017.3
20260902105019 57 0.0 1.0 0.00 0.01 0.00 82 1017.4
20260902104019 57 0.0 0.0 0.00 0.01 0.00 80 1017.3
20260902103019 57 0.0 0.0 0.00 0.01 0.00 80 1017.6
20260902102019 58 0.0 1.0 0.00 0.01 0.00 79 1017.7
20260902101020 58 0.0 0.0 0.00 0.01 0.00 79 1017.7
20260902100019 58 0.0 1.0 0.00 0.01 0.00 78 1017.7
20260902095019 58 0.0 0.0 0.00 0.01 0.00 76 1017.8
20260902094059 59 0.0 1.0 0.00 0.01 0.00 75 1018.0
20260902093020 59 0.0 0.0 0.00 0.01 0.00 73 1017.3
20260902092019 60 0.0 0.0 0.00 0.01 0.00 72 1017.2
20260902091019 60 0.0 0.0 0.00 0.01 0.00 71 1017.2
20260902090019 61 0.0 0.0 0.00 0.01 0.00 70 1017.1
20260902085019 62 0.0 0.0 0.00 0.01 0.00 68 1017.1
20260902084019 62 0.0 1.0 0.00 0.01 0.00 67 1017.1
20260902083020 62 0.0 0.0 0.00 0.01 0.00 68 1017.4
20260902082019 62 0.0 2.0 0.00 0.01 0.00 68 1017.5
20260902081019 62 0.0 2.0 0.00 0.01 0.00 66 1017.5
20260902080019 62 0.0 0.0 0.00 0.01 0.00 68 1017.8
20260902075019 62 0.0 0.0 0.00 0.01 0.00 68 1017.9
20260902074019 62 0.0 0.0 0.00 0.01 0.00 68 1017.9
20260902073019 62 0.0 0.0 0.00 0.01 0.00 67 1017.9
20260902072019 62 0.0 0.0 0.00 0.01 0.00 66 1018.0
20260902071019 62 0.0 0.0 0.00 0.01 0.00 67 1018.0
20260902070019 62 0.0 0.0 0.00 0.01 0.00 66 1017.7
20260902065019 63 0.0 0.0 0.00 0.01 0.00 64 1017.8
20260902064019 63 0.0 0.0 0.00 0.01 0.00 63 1017.9
20260902063019 63 0.0 0.0 0.00 0.01 0.00 61 1017.5
20260902062019 63 0.0 0.0 0.00 0.01 0.00 62 1017.6
20260902061019 63 0.0 0.0 0.00 0.01 0.00 64 1017.6
20260902060020 63 0.0 0.0 0.00 0.01 0.01 64 1017.4
20260902055039 63 0.0 0.0 0.00 0.01 0.01 66 1017.6
20260902054019 64 0.0 0.0 0.00 0.01 0.01 69 1017.6
20260902053019 64 0.0 0.0 0.00 0.01 0.01 69 1017.3
20260902052019 64 0.0 0.0 0.00 0.01 0.01 67 1017.1
20260902051019 65 0.0 0.0 0.00 0.01 0.01 65 1017.1
20260902050019 65 0.0 0.0 0.00 0.01 0.01 63 1017.1
20260902045019 65 0.0 0.0 0.00 0.01 0.01 63 1017.2
20260902044019 66 0.0 0.0 0.00 0.01 0.01 64 1017.3
20260902043019 66 0.0 0.0 0.00 0.01 0.01 64 1016.7
20260902042019 65 0.0 0.0 0.00 0.01 0.01 63 1016.4
20260902041019 66 0.0 0.0 0.00 0.02 0.01 65 1016.8
20260902040019 66 0.0 1.0 0.00 0.02 0.01 63 1015.8
20260902035039 67 0.0 1.0 0.00 0.02 0.01 61 1015.9
20260902034039 67 0.0 0.0 0.00 0.02 0.01 58 1015.6
20260902033019 68 0.0 0.0 0.00 0.02 0.01 57 1015.4
20260902032019 68 0.0 0.0 0.00 0.02 0.01 53 1015.1
20260902031019 69 0.0 0.0 0.00 0.02 0.01 52 1015.4
20260902030039 70 0.0 0.0 0.00 0.02 0.01 49 1015.1
20260902025019 70 0.0 0.0 0.00 0.02 0.01 48 1015.1
20260902024019 71 0.0 0.0 0.00 0.02 0.01 47 1014.8
20260902023019 72 0.0 0.0 0.00 0.02 0.01 45 1014.7
20260902022019 73 0.0 1.0 0.00 0.02 0.01 43 1014.6
20260902021039 74 0.0 0.0 0.00 0.02 0.01 42 1014.8
20260902020019 75 0.0 0.0 0.00 0.02 0.01 40 1014.7
20260902015019 76 0.0 0.0 0.00 0.02 0.01 39 1015.0
20260902014019 77 0.0 1.0 0.00 0.02 0.01 38 1014.9
20260902013039 77 0.0 0.0 0.00 0.02 0.01 39 1014.9
20260902012019 78 0.0 2.0 0.00 0.02 0.01 38 1014.9
20260902011021 78 0.0 0.0 0.00 0.02 0.01 37 1014.8
20260902010019 79 0.0 0.0 0.00 0.02 0.01 36 1015.1
20260902005019 79 0.0 3.0 0.00 0.02 0.01 35 1015.3
20260902004019 80 0.0 3.0 0.00 0.02 0.01 35 1015.4
20260902003019 80 338 1.0 3.0 0.00 0.02 0.01 35 1015.4
20260902002018 81 0.0 2.0 0.00 0.02 0.01 34 1015.7
20260902001019 81 0.0 2.0 0.00 0.02 0.01 34 1015.7
20260902000019 81 0.0 3.0 0.00 0.02 0.01 33 1015.7
20260901235038 81 0.0 2.0 0.00 0.02 0.01 33 1015.7
20260901234020 81 338 1.0 2.0 0.00 0.02 0.01 33 1015.5
20260901233019 81 338 1.0 3.0 0.00 0.02 0.01 33 1015.7
20260901232019 82 293 1.0 8.0 0.00 0.02 0.01 32 1016.0
20260901231019 83 315 3.0 8.0 0.00 0.02 0.01 31 1015.9
20260901230038 84 315 3.0 9.0 0.00 0.02 0.01 30 1015.9
20260901225021 86 315 2.0 8.0 0.00 0.02 0.01 27 1016.0
20260901224020 86 315 1.0 3.0 0.00 0.02 0.01 27 1015.9
20260901223040 86 315 1.0 3.0 0.00 0.02 0.01 27 1016.3
20260901222020 86 0.0 2.0 0.00 0.02 0.01 26 1015.9
20260901221021 87 0 1.0 4.0 0.00 0.02 0.01 24 1016.2
20260901220020 88 0.0 1.0 0.00 0.02 0.01 25 1016.6
20260901215040 87 0.0 0.0 0.00 0.02 0.01 25 1016.4
20260901214020 87 0.0 1.0 0.00 0.02 0.01 24 1016.4
20260901213021 85 0.0 0.0 0.00 0.02 0.01 28 1016.4
20260901212040 85 0.0 2.0 0.00 0.02 0.01 26 1016.5
20260901211020 83 0.0 2.0 0.00 0.02 0.01 29 1016.4
20260901210021 82 0.0 0.0 0.00 0.02 0.01 38 1017.2
20260901205020 81 0.0 1.0 0.00 0.02 0.01 31 1016.7
20260901204020 81 0.0 2.0 0.00 0.02 0.01 38 1017.2
20260901203020 82 0.0 0.0 0.00 0.02 0.01 42 1017.7
20260901202020 82 0.0 1.0 0.00 0.02 0.01 40 1017.5
20260901201020 82 0.0 0.0 0.00 0.02 0.01 43 1017.8
20260901200040 83 0.0 0.0 0.00 0.02 0.01 38 1017.6
20260901195020 83 0.0 0.0 0.00 0.02 0.01 36 1017.3
20260901194040 84 0.0 2.0 0.00 0.02 0.01 35 1017.6
20260901193021 85 225 1.0 3.0 0.00 0.02 0.01 31 1017.5
20260901192020 86 0.0 1.0 0.00 0.02 0.01 37 1018.2
20260901191021 85 158 2.0 5.0 0.00 0.02 0.01 33 1017.9
20260901190520 85 135 1.0 3.0 0.00 0.02 0.01 34 1017.9
20260901185520 84 158 1.0 5.0 0.00 0.02 0.01 40 1018.2
20260901184520 83 23 1.0 4.0 0.00 0.02 0.01 40 1018.0
20260901183520 83 180 2.0 4.0 0.00 0.02 0.01 43 1018.2
20260901182520 82 203 2.0 5.0 0.00 0.02 0.01 42 1018.0
20260901181520 81 113 3.0 7.0 0.00 0.02 0.01 42 1018.1
20260901180600 82 113 1.0 5.0 0.00 0.02 0.01 40 1018.2
20260901175540 83 0.0 3.0 0.00 0.02 0.01 38 1018.5
20260901174520 82 113 1.0 3.0 0.00 0.02 0.01 42 1018.5
20260901173540 80 0.0 2.0 0.00 0.02 0.01 45 1018.3
20260901172520 79 135 1.0 4.0 0.00 0.02 0.01 51 1018.6
20260901171520 79 158 1.0 4.0 0.00 0.02 0.01 44 1018.1
20260901170520 77 90 2.0 3.0 0.00 0.02 0.01 51 1018.6
20260901165520 77 135 2.0 5.0 0.00 0.02 0.01 50 1018.5
20260901164520 77 158 1.0 4.0 0.00 0.02 0.01 51 1018.5
20260901163520 77 0.0 1.0 0.01 0.02 0.01 55 1019.3
20260901162520 75 0.0 1.0 0.01 0.02 0.01 56 1019.0
20260901161520 73 0.0 1.0 0.01 0.02 0.01 63 1018.7
20260901160520 71 0.0 2.0 0.01 0.02 0.01 66 1018.8
20260901155520 69 0.0 0.0 0.01 0.02 0.01 70 1018.6
20260901154520 68 0.0 2.0 0.01 0.02 0.01 72 1018.7
20260901153520 67 0.0 0.0 0.00 0.01 0.00 77 1018.6
20260901152520 66 0.0 2.0 0.00 0.01 0.00 78 1018.6
20260901151520 66 0.0 0.0 0.00 0.01 0.00 80 1018.5
20260901150520 65 0.0 0.0 0.00 0.01 0.00 80 1018.6